SP5FLS-15 Weather Reports


time (UTC)temp
C
wind
direction
speed
KPH
gust
KPH
rain 1hr
cm
rain 24hr
cm
rain mn
cm
humidity
%
barometer
mb
20260905211001 13 0.0 0.0 0.00 0.00 0.00 10 1012.6
20260905210501 13 0.0 0.0 0.00 0.00 0.00 10 1012.7
20260905210002 13 0.0 0.0 0.00 0.00 0.00 10 1012.6
20260905205502 13 0.0 0.0 0.00 0.00 0.00 10 1012.4
20260905205001 13 0.0 0.0 0.00 0.00 0.00 10 1012.5
20260905204502 13 0.0 0.0 0.00 0.00 0.00 10 1012.5
20260905204002 13 0.0 0.0 0.00 0.00 0.00 10 1012.2
20260905203502 13 0.0 0.0 0.00 0.00 0.00 10 1012.3
20260905203002 13 0.0 0.0 0.00 0.00 0.00 10 1012.3
20260905202502 13 0.0 0.0 0.00 0.00 0.00 10 1012.3
20260905202002 13 0.0 0.0 0.00 0.00 0.00 10 1012.1
20260905201502 13 0.0 0.0 0.00 0.00 0.00 10 1012.0
20260905201002 13 0.0 0.0 0.00 0.00 0.00 10 1012.2
20260905200501 13 0.0 0.0 0.00 0.00 0.00 10 1011.9
20260905200002 13 0.0 0.0 0.00 0.00 0.00 10 1012.0
20260905195502 13 0.0 0.0 0.00 0.00 0.00 10 1011.8
20260905195002 13 0.0 0.0 0.00 0.00 0.00 10 1012.0
20260905194502 13 0.0 0.0 0.00 0.00 0.00 10 1012.0
20260905194002 13 0.0 0.0 0.00 0.00 0.00 10 1011.9
20260905193502 13 0.0 0.0 0.00 0.00 0.00 10 1011.6
20260905193002 13 0.0 0.0 0.00 0.00 0.00 10 1011.9
20260905192502 13 0.0 0.0 0.00 0.00 0.00 10 1012.0
20260905192002 13 0.0 0.0 0.00 0.00 0.00 10 1011.9
20260905191503 13 0.0 0.0 0.00 0.00 0.00 10 1011.8
20260905191002 13 0.0 0.0 0.00 0.00 0.00 10 1011.8
20260905190501 14 0.0 0.0 0.00 0.00 0.00 10 1011.7
20260905190002 13 0.0 0.0 0.00 0.00 0.00 10 1011.7
20260905185502 13 0.0 0.0 0.00 0.00 0.00 10 1011.9
20260905185002 13 0.0 0.0 0.00 0.00 0.00 10 1011.8
20260905184502 13 0.0 0.0 0.00 0.00 0.00 10 1011.8
20260905184002 13 0.0 0.0 0.00 0.00 0.00 10 1012.0
20260905183501 13 0.0 0.0 0.00 0.00 0.00 10 1012.0
20260905183002 13 0.0 0.0 0.00 0.00 0.00 10 1012.1
20260905182502 13 0.0 0.0 0.00 0.00 0.00 10 1012.2
20260905182002 13 0.0 0.0 0.00 0.00 0.00 10 1012.2
20260905181502 13 0.0 0.0 0.00 0.00 0.00 10 1012.2
20260905181002 13 0.0 0.0 0.00 0.00 0.00 10 1012.2
20260905180502 13 0.0 0.0 0.00 0.00 0.00 10 1012.0
20260905180002 13 0.0 0.0 0.00 0.00 0.00 10 1012.0
20260905175502 13 0.0 0.0 0.00 0.00 0.00 10 1011.9
20260905175002 13 0.0 0.0 0.00 0.00 0.00 10 1011.8
20260905174502 13 0.0 0.0 0.00 0.00 0.00 10 1011.7
20260905174002 13 0.0 0.0 0.00 0.00 0.00 10 1011.7
20260905173503 13 0.0 0.0 0.00 0.00 0.00 10 1011.8
20260905173002 13 0.0 0.0 0.00 0.00 0.00 10 1011.8
20260905172502 13 0.0 0.0 0.00 0.00 0.00 10 1011.7
20260905172002 13 0.0 0.0 0.00 0.00 0.00 10 1011.7
20260905171502 14 0.0 0.0 0.00 0.00 0.00 10 1011.8
20260905171002 13 0.0 0.0 0.00 0.00 0.00 10 1011.6
20260905170501 14 0.0 0.0 0.00 0.00 0.00 10 1011.6
20260905170002 14 0.0 0.0 0.00 0.00 0.00 10 1011.6
20260905165502 14 0.0 0.0 0.00 0.00 0.00 10 1011.7
20260905165002 14 0.0 0.0 0.00 0.00 0.00 10 1011.6
20260905164502 14 0.0 0.0 0.00 0.00 0.00 10 1011.7
20260905164002 14 0.0 0.0 0.00 0.00 0.00 10 1011.6
20260905163502 14 0.0 0.0 0.00 0.00 0.00 10 1011.7
20260905163002 14 0.0 0.0 0.00 0.00 0.00 10 1011.7
20260905162501 14 0.0 0.0 0.00 0.00 0.00 10 1011.5
20260905162001 14 0.0 0.0 0.00 0.00 0.00 10 1011.4
20260905161501 14 0.0 0.0 0.00 0.00 0.00 10 1011.5
20260905161002 14 0.0 0.0 0.00 0.00 0.00 10 1011.4
20260905160502 14 0.0 0.0 0.00 0.00 0.00 10 1011.4
20260905160002 14 0.0 0.0 0.00 0.00 0.00 98 1011.3
20260905155502 7 0.0 0.0 0.00 0.00 0.00 45 1011.3
20260905155002 15 0.0 0.0 0.00 0.00 0.00 98 1011.4
20260905154501 15 0.0 0.0 0.00 0.00 0.00 98 1011.4
20260905154002 15 0.0 0.0 0.00 0.00 0.00 99 1011.3
20260905153502 15 0.0 0.0 0.00 0.00 0.00 91 1011.4
20260905153002 15 0.0 0.0 0.00 0.00 0.00 88 1011.5
20260905152502 15 0.0 0.0 0.00 0.00 0.00 98 1011.5
20260905152001 15 0.0 0.0 0.00 0.00 0.00 88 1011.5
20260905151502 15 0.0 0.0 0.00 0.00 0.00 94 1011.7
20260905151002 14 0.0 0.0 0.00 0.00 0.00 98 1011.8
20260905150502 15 0.0 0.0 0.00 0.00 0.00 92 1011.6
20260905150002 15 0.0 0.0 0.00 0.00 0.00 47 1011.4
20260905145502 15 0.0 0.0 0.00 0.00 0.00 60 1011.7
20260905145002 16 0.0 0.0 0.00 0.00 0.00 95 1011.7
20260905144502 17 0.0 0.0 0.00 0.00 0.00 10 1011.2
20260905144002 17 0.0 0.0 0.00 0.00 0.00 93 1010.9
20260905143502 17 0.0 0.0 0.00 0.00 0.00 10 1010.9
20260905143002 17 0.0 0.0 0.00 0.00 0.00 10 1010.8
20260905142502 17 0.0 0.0 0.00 0.00 0.00 10 1010.9
20260905142002 17 0.0 0.0 0.00 0.00 0.00 10 1010.8
20260905141501 17 0.0 0.0 0.00 0.00 0.00 10 1010.8
20260905141002 17 0.0 0.0 0.00 0.00 0.00 10 1010.7
20260905140502 18 0.0 0.0 0.00 0.00 0.00 10 1010.7
20260905140002 18 0.0 0.0 0.00 0.00 0.00 10 1010.7
20260905135502 18 0.0 0.0 0.00 0.00 0.00 10 1010.6
20260905135002 18 0.0 0.0 0.00 0.00 0.00 10 1010.5
20260905134502 18 0.0 0.0 0.00 0.00 0.00 10 1010.5
20260905134003 18 0.0 0.0 0.00 0.00 0.00 10 1010.4
20260905133502 18 0.0 0.0 0.00 0.00 0.00 10 1010.4
20260905133002 18 0.0 0.0 0.00 0.00 0.00 10 1010.4
20260905132502 18 0.0 0.0 0.00 0.00 0.00 10 1010.7
20260905132002 19 0.0 0.0 0.00 0.00 0.00 10 1010.6
20260905131502 18 0.0 0.0 0.00 0.00 0.00 10 1010.7
20260905131002 18 0.0 0.0 0.00 0.00 0.00 10 1010.5
20260905130502 18 0.0 0.0 0.00 0.00 0.00 10 1010.6
20260905130001 18 0.0 0.0 0.00 0.00 0.00 10 1010.7
20260905125502 18 0.0 0.0 0.00 0.00 0.00 10 1010.6
20260905125002 18 0.0 0.0 0.00 0.00 0.00 10 1010.5
20260905124502 18 0.0 0.0 0.00 0.00 0.00 10 1010.7
20260905124002 17 0.0 0.0 0.00 0.00 0.00 10 1010.8
20260905123002 17 0.0 0.0 0.00 0.00 0.00 10 1010.7
20260905122502 17 0.0 0.0 0.00 0.00 0.00 10 1010.5
20260905122002 18 0.0 0.0 0.00 0.00 0.00 10 1010.5
20260905121502 18 0.0 0.0 0.00 0.00 0.00 10 1010.5
20260905121001 18 0.0 0.0 0.00 0.00 0.00 10 1010.5
20260905120502 18 0.0 0.0 0.00 0.00 0.00 10 1010.6
20260905120002 18 0.0 0.0 0.00 0.00 0.00 10 1010.6
20260905115502 18 0.0 0.0 0.00 0.00 0.00 10 1010.5
20260905115002 17 0.0 0.0 0.00 0.00 0.00 10 1010.6
20260905114502 17 0.0 0.0 0.00 0.00 0.00 98 1010.6
20260905114002 17 0.0 0.0 0.00 0.00 0.00 96 1010.6
20260905113502 17 0.0 0.0 0.00 0.00 0.00 98 1010.6
20260905113002 17 0.0 0.0 0.00 0.00 0.00 10 1010.5
20260905112502 17 0.0 0.0 0.00 0.00 0.00 98 1010.5
20260905112002 17 0.0 0.0 0.00 0.00 0.00 10 1010.4
20260905111502 17 0.0 0.0 0.00 0.00 0.00 10 1010.5
20260905111002 17 0.0 0.0 0.00 0.00 0.00 10 1010.4
20260905110502 17 0.0 0.0 0.00 0.00 0.00 10 1010.4
20260905110002 17 0.0 0.0 0.00 0.00 0.00 10 1010.4
20260905105502 18 0.0 0.0 0.00 0.00 0.00 10 1010.4
20260905105002 18 0.0 0.0 0.00 0.00 0.00 10 1010.2
20260905104502 18 0.0 0.0 0.00 0.00 0.00 10 1010.4
20260905104002 18 0.0 0.0 0.00 0.00 0.00 10 1010.3
20260905103501 18 0.0 0.0 0.00 0.00 0.00 10 1010.4
20260905103002 17 0.0 0.0 0.00 0.00 0.00 94 1010.2
20260905102501 17 0.0 0.0 0.00 0.00 0.00 92 1010.2
20260905102002 17 0.0 0.0 0.00 0.00 0.00 84 1010.0
20260905101502 17 0.0 0.0 0.00 0.00 0.00 82 1009.9
20260905101002 17 0.0 0.0 0.00 0.00 0.00 79 1010.0
20260905100502 17 0.0 0.0 0.00 0.00 0.00 81 1010.0
20260905100002 17 0.0 0.0 0.00 0.00 0.00 86 1009.8
20260905095502 18 0.0 0.0 0.00 0.00 0.00 90 1009.8
20260905095002 17 0.0 0.0 0.00 0.00 0.00 71 1009.8
20260905094502 17 0.0 0.0 0.00 0.00 0.00 64 1009.8
20260905094002 17 0.0 0.0 0.00 0.00 0.00 80 1009.8
20260905093501 17 0.0 0.0 0.00 0.00 0.00 80 1009.6
20260905093002 18 0.0 0.0 0.00 0.00 0.00 63 1009.6
20260905092502 17 0.0 0.0 0.00 0.00 0.00 54 1009.7
20260905092002 16 0.0 0.0 0.00 0.00 0.00 52 1009.6
20260905091501 16 0.0 0.0 0.00 0.00 0.00 36 1009.6
20260905091002 16 0.0 0.0 0.00 0.00 0.00 44 1009.4
20260905090502 16 0.0 0.0 0.00 0.00 0.00 34 1009.6
20260905090002 8 0.0 0.0 0.00 0.00 0.00 27 1009.4
20260905085502 16 0.0 0.0 0.00 0.00 0.00 59 1009.6
20260905085002 17 0.0 0.0 0.00 0.00 0.00 66 1009.6
20260905084502 17 0.0 0.0 0.00 0.00 0.00 58 1009.5
20260905084002 17 0.0 0.0 0.00 0.00 0.00 54 1009.4
20260905083502 17 0.0 0.0 0.00 0.00 0.00 52 1009.5
20260905083002 16 0.0 0.0 0.00 0.00 0.00 56 1009.4
20260905082502 16 0.0 0.0 0.00 0.00 0.00 51 1009.3
20260905082002 16 0.0 0.0 0.00 0.00 0.00 52 1009.3
20260905081502 17 0.0 0.0 0.00 0.00 0.00 50 1009.3
20260905081002 16 0.0 0.0 0.00 0.00 0.00 45 1009.2
20260905080501 16 0.0 0.0 0.00 0.00 0.00 43 1009.2
20260905080002 16 0.0 0.0 0.00 0.00 0.00 38 1009.0
20260905075502 16 0.0 0.0 0.00 0.00 0.00 41 1009.1
20260905075002 16 0.0 0.0 0.00 0.00 0.00 30 1009.0
20260905074502 16 0.0 0.0 0.00 0.00 0.00 33 1008.9
20260905074007 16 0.0 0.0 0.00 0.00 0.00 36 1008.9
20260905073502 16 0.0 0.0 0.00 0.00 0.00 31 1008.9
20260905073001 16 0.0 0.0 0.00 0.00 0.00 34 1008.8
20260905072502 16 0.0 0.0 0.00 0.00 0.00 91 1008.8
20260905072002 16 0.0 0.0 0.00 0.00 0.00 88 1008.8
20260905071502 16 0.0 0.0 0.00 0.00 0.00 92 1008.8
20260905071002 16 0.0 0.0 0.00 0.00 0.00 93 1008.8
20260905070502 16 0.0 0.0 0.00 0.00 0.00 93 1008.8
20260905070002 16 0.0 0.0 0.00 0.00 0.00 96 1008.5
20260905065502 16 0.0 0.0 0.00 0.00 0.00 98 1008.7
20260905065002 16 0.0 0.0 0.00 0.00 0.00 97 1008.5
20260905064502 16 0.0 0.0 0.00 0.00 0.00 99 1008.6
20260905064002 16 0.0 0.0 0.00 0.00 0.00 99 1008.5
20260905063502 16 0.0 0.0 0.00 0.00 0.00 99 1008.3
20260905063004 16 0.0 0.0 0.00 0.00 0.00 10 1008.2
20260905062502 15 0.0 0.0 0.00 0.00 0.00 10 1008.1
20260905062002 15 0.0 0.0 0.00 0.00 0.00 10 1008.2
20260905061502 15 0.0 0.0 0.00 0.00 0.00 10 1008.1
20260905061002 15 0.0 0.0 0.00 0.00 0.00 10 1008.0
20260905060501 15 0.0 0.0 0.00 0.00 0.00 10 1008.1
20260905060002 15 0.0 0.0 0.00 0.00 0.00 10 1008.0
20260905055502 15 0.0 0.0 0.00 0.00 0.00 10 1007.9
20260905055002 15 0.0 0.0 0.00 0.00 0.00 10 1007.9
20260905054502 15 0.0 0.0 0.00 0.00 0.00 10 1007.8
20260905054001 15 0.0 0.0 0.00 0.00 0.00 10 1007.7
20260905053502 15 0.0 0.0 0.00 0.00 0.00 10 1007.7
20260905053002 15 0.0 0.0 0.00 0.00 0.00 10 1007.6
20260905052502 15 0.0 0.0 0.00 0.00 0.00 10 1007.4
20260905052002 15 0.0 0.0 0.00 0.00 0.00 10 1007.5
20260905051502 15 0.0 0.0 0.00 0.00 0.00 10 1007.5
20260905051002 15 0.0 0.0 0.00 0.00 0.00 10 1007.4
20260905050502 15 0.0 0.0 0.00 0.00 0.00 10 1007.5
20260905050001 14 0.0 0.0 0.00 0.00 0.00 10 1007.3
20260905045502 14 0.0 0.0 0.00 0.00 0.00 10 1007.3
20260905045002 15 0.0 0.0 0.00 0.00 0.00 10 1007.2
20260905044502 14 0.0 0.0 0.00 0.00 0.00 10 1007.3
20260905044002 14 0.0 0.0 0.00 0.00 0.00 10 1007.3
20260905043502 14 0.0 0.0 0.00 0.00 0.00 10 1006.9
20260905043002 14 0.0 0.0 0.00 0.00 0.00 10 1007.0
20260905042502 14 0.0 0.0 0.00 0.00 0.00 10 1006.8
20260905042002 14 0.0 0.0 0.00 0.00 0.00 10 1006.9
20260905041502 15 0.0 0.0 0.00 0.00 0.00 10 1006.8
20260905041001 15 0.0 0.0 0.00 0.00 0.00 10 1006.6
20260905040502 15 0.0 0.0 0.00 0.00 0.00 10 1006.7
20260905040002 15 0.0 0.0 0.00 0.00 0.00 10 1006.4
20260905035501 15 0.0 0.0 0.00 0.00 0.00 10 1006.3
20260905035002 15 0.0 0.0 0.00 0.00 0.00 10 1006.2
20260905034502 15 0.0 0.0 0.00 0.00 0.00 10 1006.0
20260905034002 15 0.0 0.0 0.00 0.00 0.00 10 1005.8
20260905033502 15 0.0 0.0 0.00 0.00 0.00 10 1005.6
20260905033002 15 0.0 0.0 0.00 0.00 0.00 10 1005.7
20260905032502 15 0.0 0.0 0.00 0.00 0.00 10 1005.6
20260905032002 15 0.0 0.0 0.00 0.00 0.00 10 1005.5
20260905031501 15 0.0 0.0 0.00 0.00 0.00 10 1005.4
20260905031001 15 0.0 0.0 0.00 0.00 0.00 10 1005.2
20260905030502 15 0.0 0.0 0.00 0.00 0.00 10 1005.2
20260905030002 15 0.0 0.0 0.00 0.00 0.00 10 1005.1
20260905025502 15 0.0 0.0 0.00 0.00 0.00 10 1005.2
20260905025002 15 0.0 0.0 0.00 0.00 0.00 10 1005.4
20260905024502 15 0.0 0.0 0.00 0.00 0.00 10 1005.3
20260905024002 15 0.0 0.0 0.00 0.00 0.00 10 1005.1
20260905023502 15 0.0 0.0 0.00 0.00 0.00 10 1005.0
20260905023002 15 0.0 0.0 0.00 0.00 0.00 10 1005.2
20260905022501 15 0.0 0.0 0.00 0.00 0.00 10 1005.1
20260905022002 15 0.0 0.0 0.00 0.00 0.00 10 1005.2
20260905021502 15 0.0 0.0 0.00 0.00 0.00 10 1005.1
20260905021002 15 0.0 0.0 0.00 0.00 0.00 10 1005.0
20260905020502 15 0.0 0.0 0.00 0.00 0.00 10 1005.1
20260905020002 15 0.0 0.0 0.00 0.00 0.00 10 1005.0
20260905015502 15 0.0 0.0 0.00 0.00 0.00 10 1005.0
20260905015002 15 0.0 0.0 0.00 0.00 0.00 10 1004.8
20260905014501 15 0.0 0.0 0.00 0.00 0.00 10 1004.7
20260905014002 15 0.0 0.0 0.00 0.00 0.00 10 1004.4
20260905013502 15 0.0 0.0 0.00 0.00 0.00 10 1004.5
20260905013002 15 0.0 0.0 0.00 0.00 0.00 10 1004.5
20260905012502 16 0.0 0.0 0.00 0.00 0.00 10 1004.7
20260905012002 15 0.0 0.0 0.00 0.00 0.00 10 1004.6
20260905011501 16 0.0 0.0 0.00 0.00 0.00 10 1004.6
20260905011002 16 0.0 0.0 0.00 0.00 0.00 10 1004.7
20260905010502 16 0.0 0.0 0.00 0.00 0.00 10 1004.5
20260905010002 16 0.0 0.0 0.00 0.00 0.00 10 1004.6
20260905005502 16 0.0 0.0 0.00 0.00 0.00 10 1004.3
20260905005002 16 0.0 0.0 0.00 0.00 0.00 10 1004.0
20260905004502 16 0.0 0.0 0.00 0.00 0.00 10 1003.9
20260905004002 16 0.0 0.0 0.00 0.00 0.00 10 1003.9
20260905003502 16 0.0 0.0 0.00 0.00 0.00 10 1003.9
20260905003002 16 0.0 0.0 0.00 0.00 0.00 10 1003.9
20260905002534 16 0.0 0.0 0.00 0.00 0.00 10 1003.7
20260905002002 16 0.0 0.0 0.00 0.00 0.00 10 1003.5
20260905001502 16 0.0 0.0 0.00 0.00 0.00 10 1003.5
20260905001002 16 0.0 0.0 0.00 0.00 0.00 10 1003.5
20260905000501 16 0.0 0.0 0.00 0.00 0.00 10 1003.6
20260905000002 16 0.0 0.0 0.00 0.00 0.00 10 1003.6
20260904235502 16 0.0 0.0 0.00 0.00 0.00 10 1003.8
20260904235001 16 0.0 0.0 0.00 0.00 0.00 10 1003.7
20260904234502 16 0.0 0.0 0.00 0.00 0.00 10 1003.6
20260904234002 16 0.0 0.0 0.00 0.00 0.00 10 1003.5
20260904233501 16 0.0 0.0 0.00 0.00 0.00 10 1003.5
20260904233002 16 0.0 0.0 0.00 0.00 0.00 10 1003.5
20260904232502 16 0.0 0.0 0.00 0.00 0.00 10 1003.7
20260904232002 16 0.0 0.0 0.00 0.00 0.00 10 1003.3
20260904231502 16 0.0 0.0 0.00 0.00 0.00 10 1003.4
20260904231002 16 0.0 0.0 0.00 0.00 0.00 10 1003.5
20260904230502 16 0.0 0.0 0.00 0.00 0.00 10 1003.4
20260904230002 16 0.0 0.0 0.00 0.00 0.00 10 1003.5
20260904225502 16 0.0 0.0 0.00 0.00 0.00 10 1003.4
20260904225002 16 0.0 0.0 0.00 0.00 0.00 10 1003.4
20260904224501 16 0.0 0.0 0.00 0.00 0.00 10 1003.4
20260904224002 16 0.0 0.0 0.00 0.00 0.00 10 1003.5
20260904223502 16 0.0 0.0 0.00 0.00 0.00 10 1003.3
20260904223002 16 0.0 0.0 0.00 0.00 0.00 10 1003.1
20260904222501 16 0.0 0.0 0.00 0.00 0.00 10 1002.9
20260904222002 16 0.0 0.0 0.00 0.00 0.00 10 1002.9
20260904221502 16 0.0 0.0 0.00 0.00 0.00 10 1003.0
20260904221001 16 0.0 0.0 0.00 0.00 0.00 10 1003.0
20260904220502 16 0.0 0.0 0.00 0.00 0.00 10 1002.9
20260904220002 16 0.0 0.0 0.00 0.00 0.00 10 1003.1
20260904215501 16 0.0 0.0 0.00 0.00 0.00 10 1003.3
20260904215002 16 0.0 0.0 0.00 0.00 0.00 10 1003.3
20260904214502 16 0.0 0.0 0.00 0.00 0.00 10 1003.2
20260904214002 16 0.0 0.0 0.00 0.00 0.00 10 1003.6
20260904213502 16 0.0 0.0 0.00 0.00 0.00 10 1003.4
20260904213002 16 0.0 0.0 0.00 0.00 0.00 10 1003.1
20260904212502 16 0.0 0.0 0.00 0.00 0.00 10 1002.9
20260904212002 16 0.0 0.0 0.00 0.00 0.00 10 1003.0
20260904211502 16 0.0 0.0 0.00 0.00 0.00 10 1003.0